TimeCDT,TemperatureF,Dew PointF,Humidity,Sea Level PressureIn,VisibilityMPH,Wind Direction,Wind SpeedMPH,Gust SpeedMPH,PrecipitationIn,Events,Conditions,WindDirDegrees,DateUTC
12:12 AM,71.6,69.8,94,29.93,10.0,Calm,Calm,-,N/A,,Scattered Clouds,0,2013-07-08 05:12:00
12:33 AM,71.6,69.8,94,29.93,10.0,Calm,Calm,-,N/A,,Clear,0,2013-07-08 05:33:00
12:53 AM,69.8,69.8,100,29.93,10.0,North,4.6,-,N/A,,Clear,350,2013-07-08 05:53:00
1:12 AM,71.6,69.8,94,29.94,10.0,NNW,3.5,-,N/A,,Scattered Clouds,330,2013-07-08 06:12:00
1:33 AM,71.6,69.8,94,29.94,10.0,Calm,Calm,-,N/A,,Scattered Clouds,0,2013-07-08 06:33:00
1:53 AM,71.6,69.8,94,29.95,10.0,Calm,Calm,-,N/A,,Scattered Clouds,0,2013-07-08 06:53:00
2:12 AM,71.6,69.8,94,29.95,10.0,NW,3.5,-,N/A,,Scattered Clouds,310,2013-07-08 07:12:00
2:33 AM,69.8,68.0,94,29.95,10.0,Calm,Calm,-,N/A,,Scattered Clouds,0,2013-07-08 07:33:00
2:53 AM,69.8,68.0,94,29.95,10.0,Calm,Calm,-,N/A,,Scattered Clouds,0,2013-07-08 07:53:00
3:12 AM,69.8,68.0,94,29.95,10.0,Calm,Calm,-,N/A,,Scattered Clouds,0,2013-07-08 08:12:00
3:33 AM,69.8,68.0,94,29.94,7.0,Calm,Calm,-,N/A,,Scattered Clouds,0,2013-07-08 08:33:00
3:52 AM,69.8,68.0,94,29.94,10.0,Calm,Calm,-,N/A,,Unknown,0,2013-07-08 08:52:00
4:13 AM,69.8,68.0,94,29.95,10.0,Calm,Calm,-,N/A,,Clear,0,2013-07-08 09:13:00
4:33 AM,69.8,68.0,94,29.94,10.0,Calm,Calm,-,N/A,,Clear,0,2013-07-08 09:33:00
4:52 AM,68.0,66.2,94,29.95,7.0,NNW,5.8,-,N/A,,Scattered Clouds,330,2013-07-08 09:52:00
5:13 AM,68.0,68.0,100,29.95,10.0,NW,4.6,-,N/A,,Scattered Clouds,320,2013-07-08 10:13:00
5:33 AM,68.0,66.2,94,29.95,7.0,NNW,4.6,-,N/A,,Clear,340,2013-07-08 10:33:00
5:52 AM,68.0,68.0,100,29.96,10.0,NNW,5.8,-,N/A,,Clear,340,2013-07-08 10:52:00
6:13 AM,68.0,68.0,100,29.96,10.0,NNW,6.9,-,N/A,,Clear,340,2013-07-08 11:13:00
6:33 AM,69.8,68.0,94,29.96,10.0,NNW,8.1,-,N/A,,Clear,340,2013-07-08 11:33:00
6:52 AM,69.8,68.0,94,29.97,10.0,North,5.8,-,N/A,,Clear,10,2013-07-08 11:52:00
7:13 AM,69.8,68.0,94,29.97,7.0,NE,9.2,-,N/A,,Mostly Cloudy,40,2013-07-08 12:13:00
7:33 AM,68.0,68.0,100,29.97,2.0,NE,5.8,-,N/A,,Overcast,50,2013-07-08 12:33:00
7:52 AM,68.0,68.0,100,29.99,1.0,ENE,4.6,-,N/A,,Overcast,60,2013-07-08 12:52:00
8:13 AM,69.8,69.8,100,30.00,1.2,NE,4.6,-,N/A,,Overcast,40,2013-07-08 13:13:00
8:33 AM,69.8,69.8,100,30.01,1.5,ENE,3.5,-,N/A,,Overcast,60,2013-07-08 13:33:00
8:53 AM,69.8,69.8,100,30.01,4.0,NE,6.9,-,N/A,,Overcast,40,2013-07-08 13:53:00
9:13 AM,69.8,69.8,100,30.01,4.0,ENE,6.9,-,N/A,,Overcast,60,2013-07-08 14:13:00
9:32 AM,69.8,68.0,94,30.02,5.0,ENE,8.1,-,N/A,,Overcast,60,2013-07-08 14:32:00
9:53 AM,69.8,68.0,94,30.03,5.0,ENE,8.1,-,N/A,,Overcast,60,2013-07-08 14:53:00
10:12 AM,69.8,68.0,94,30.03,7.0,ENE,5.8,-,N/A,,Overcast,60,2013-07-08 15:12:00
10:33 AM,69.8,69.8,100,30.04,7.0,NE,3.5,-,N/A,,Overcast,40,2013-07-08 15:33:00
10:53 AM,71.6,69.8,94,30.04,7.0,NNE,4.6,-,N/A,,Overcast,20,2013-07-08 15:53:00
11:12 AM,71.6,69.8,94,30.04,7.0,ENE,4.6,-,N/A,,Overcast,60,2013-07-08 16:12:00
11:33 AM,73.4,69.8,88,30.03,10.0,NNE,4.6,-,N/A,,Overcast,30,2013-07-08 16:33:00
11:53 AM,73.4,69.8,88,30.02,7.0,East,8.1,-,N/A,,Overcast,90,2013-07-08 16:53:00
12:12 PM,75.2,71.6,89,30.02,7.0,NE,5.8,-,N/A,,Scattered Clouds,40,2013-07-08 17:12:00
12:33 PM,75.2,71.6,89,30.01,7.0,NE,4.6,-,N/A,,Clear,50,2013-07-08 17:33:00
12:53 PM,78.8,71.6,78,30.01,7.0,NNE,3.5,-,N/A,,Clear,20,2013-07-08 17:53:00
1:12 PM,78.8,71.6,78,30.01,7.0,NE,3.5,-,N/A,,Scattered Clouds,40,2013-07-08 18:12:00
1:33 PM,80.6,71.6,74,30.01,10.0,NNE,3.5,-,N/A,,Clear,20,2013-07-08 18:33:00
1:53 PM,80.6,69.8,70,30.01,10.0,Calm,Calm,-,N/A,,Clear,0,2013-07-08 18:53:00
2:12 PM,82.4,71.6,70,30.00,10.0,NNE,3.5,-,N/A,,Clear,20,2013-07-08 19:12:00
2:33 PM,84.2,64.4,51,29.99,10.0,WSW,3.5,-,N/A,,Clear,240,2013-07-08 19:33:00
2:53 PM,84.2,57.2,40,29.98,10.0,NW,3.5,-,N/A,,Clear,310,2013-07-08 19:53:00
3:12 PM,84.2,64.4,51,29.98,10.0,NW,3.5,-,N/A,,Clear,310,2013-07-08 20:12:00
3:33 PM,86.0,60.8,43,29.98,10.0,Calm,Calm,-,N/A,,Clear,0,2013-07-08 20:33:00
3:53 PM,87.8,62.6,43,29.98,10.0,Calm,Calm,-,N/A,,Clear,0,2013-07-08 20:53:00
4:12 PM,87.8,62.6,43,29.98,10.0,WNW,3.5,-,N/A,,Clear,300,2013-07-08 21:12:00
4:33 PM,87.8,60.8,40,29.98,10.0,Calm,Calm,-,N/A,,Clear,0,2013-07-08 21:33:00
4:52 PM,87.8,57.2,35,29.97,10.0,Calm,Calm,-,N/A,,Clear,0,2013-07-08 21:52:00
5:13 PM,87.8,57.2,35,29.96,10.0,Calm,Calm,-,N/A,,Clear,0,2013-07-08 22:13:00
5:32 PM,87.8,59.0,38,29.97,10.0,Calm,Calm,-,N/A,,Clear,0,2013-07-08 22:32:00
5:53 PM,87.8,60.8,40,29.97,10.0,Calm,Calm,-,N/A,,Clear,0,2013-07-08 22:53:00
6:13 PM,87.8,64.4,46,29.96,10.0,Calm,Calm,-,N/A,,Clear,0,2013-07-08 23:13:00
6:32 PM,87.8,62.6,43,29.97,10.0,Calm,Calm,-,N/A,,Clear,0,2013-07-08 23:32:00
6:53 PM,86.0,62.6,45,29.96,10.0,Calm,Calm,-,N/A,,Clear,0,2013-07-08 23:53:00
7:13 PM,84.2,62.6,48,29.96,10.0,Calm,Calm,-,N/A,,Clear,0,2013-07-09 00:13:00
7:32 PM,84.2,64.4,51,29.96,10.0,Calm,Calm,-,N/A,,Clear,0,2013-07-09 00:32:00
7:53 PM,80.6,66.2,61,29.96,10.0,ENE,3.5,-,N/A,,Clear,70,2013-07-09 00:53:00
8:13 PM,82.4,69.8,66,29.96,10.0,ENE,3.5,-,N/A,,Clear,60,2013-07-09 01:13:00
8:32 PM,82.4,68.0,62,29.96,10.0,ENE,5.8,-,N/A,,Clear,60,2013-07-09 01:32:00
8:53 PM,80.6,69.8,70,29.96,10.0,ENE,4.6,-,N/A,,Clear,70,2013-07-09 01:53:00
9:12 PM,78.8,69.8,74,29.96,10.0,East,3.5,-,N/A,,Clear,80,2013-07-09 02:12:00
9:33 PM,78.8,69.8,74,29.96,10.0,East,4.6,-,N/A,,Clear,80,2013-07-09 02:33:00
9:53 PM,77.0,71.6,83,29.96,10.0,East,4.6,-,N/A,,Clear,100,2013-07-09 02:53:00
10:13 PM,77.0,71.6,83,29.97,10.0,East,4.6,-,N/A,,Clear,90,2013-07-09 03:13:00
10:33 PM,75.2,71.6,89,29.98,10.0,ESE,3.5,-,N/A,,Clear,110,2013-07-09 03:33:00
10:53 PM,75.2,71.6,89,29.97,10.0,East,3.5,-,N/A,,Clear,80,2013-07-09 03:53:00
11:13 PM,75.2,71.6,89,29.97,10.0,East,3.5,-,N/A,,Clear,90,2013-07-09 04:13:00
11:33 PM,75.2,71.6,89,29.97,10.0,East,3.5,-,N/A,,Clear,80,2013-07-09 04:33:00
11:53 PM,75.2,71.6,89,29.97,10.0,East,4.6,-,N/A,,Clear,80,2013-07-09 04:53:00